RH
2 2 2 2 2 2 2 2 1 1 1 1 1 1 1 1 1 2 2 2 2 2 2 2 2 2 2 2 2 2 2 2 2 3 2 4 5 4 5 6 7 12 19 21 27 34 33 39 67 100 113 111 106 100 99 94 78 74 83 85 85 87 88 99 107 103 100 103 107 107 103 102 104 103
2 2 2 2 2 2 2 2 1 1 1 1 1 1 1 1 1 2 2 2 2 2 2 2 2 2 2 2 2 2 2 2 2 3 3 2 4 5 4 5 6 7 13 19 21 29 36 35 41 65 92 109 108 95 93 96 87 85 90 84 85 89 84 88 100 106 105 103 104 106 102 104 107 104
2 2 2 2 2 2 2 1 1 2 1 1 1 1 1 1 1 1 1 2 2 2 2 2 1 2 2 2 2 2 2 2 2 2 3 3 3 4 5 5 5 6 8 14 19 22 31 37 37 41 56 79 95 89 81 84 89 96 99 94 92 89 84 85 90 98 106 107 104 102 104 109 107 103
2 2 2 2 2 2 2 2 1 1 2 1 1 1 1 1 1 1 1 2 2 2 2 2 2 2 2 2 2 2 2 2 3 2 2 3 3 3 5 5 5 6 5 8 14 18 24 32 39 40 39 45 61 70 66 63 76 95 104 102 98 89 86 87 85 89 97 103 103 101 105 110 104 101
2 2 2 2 2 2 2 2 2 1 1 2 1 1 1 1 1 1 1 1 1 2 2 1 2 1 2 2 2 2 3 2 2 3 2 2 3 3 3 5 5 5 5 6 9 14 19 25 33 40 42 39 39 45 48 45 52 73 95 108 103 90 90 94 91 92 95 98 104 105 106 105 100 102
2 2 2 2 2 2 2 1 2 1 1 1 1 1 1 1 1 1 1 1 1 2 2 1 2 2 2 2 2 2 2 2 2 2 3 2 2 3 3 4 5 6 6 5 6 10 14 19 25 32 40 44 40 37 37 36 36 43 65 95 106 97 95 97 96 97 97 99 105 106 104 104 101 102
2 2 2 2 2 2 2 2 2 1 2 1 1 2 1 1 2 1 1 1 1 1 2 2 1 2 2 2 2 2 2 2 3 2 3 3 2 3 3 4 5 5 6 6 6 7 10 13 19 25 32 38 42 42 39 36 34 30 35 58 88 103 102 98 99 101 97 97 105 105 105 106 103 102
2 2 2 2 2 2 2 2 2 1 1 2 1 1 2 1 1 1 1 1 1 1 2 2 2 1 2 2 2 2 2 2 2 2 3 3 3 3 3 4 4 5 6 6 7 6 7 10 13 18 24 29 34 38 40 40 38 35 29 30 51 84 103 107 105 100 97 99 102 105 109 108 104 105
3 3 2 2 2 2 2 2 2 2 1 1 2 1 1 2 1 1 1 1 1 1 1 2 2 2 2 2 2 2 2 2 2 3 3 2 3 3 3 3 4 5 6 6 7 7 6 7 9 13 18 22 26 28 32 38 39 39 37 28 27 46 79 108 109 98 104 109 101 99 106 107 104 106
3 3 3 2 2 2 2 2 1 2 2 1 2 1 1 2 1 1 1 1 1 1 2 2 2 2 2 2 2 2 2 3 2 3 3 3 3 3 3 3 3 4 5 5 7 8 8 8 7 9 12 16 20 21 22 28 33 38 40 36 30 27 44 80 101 105 111 107 99 104 107 102 101 106
3 3 3 2 3 2 2 2 1 1 2 1 1 2 1 1 1 1 1 1 1 1 2 2 2 2 2 2 2 2 2 3 2 3 3 3 3 3 3 3 3 3 4 5 6 7 8 9 7 7 9 11 14 16 17 19 23 30 36 36 37 32 30 44 68 96 111 103 103 113 108 100 103 108
3 3 3 2 2 2 2 2 2 1 2 1 1 1 2 1 1 1 1 1 2 1 1 2 2 2 2 2 2 2 2 3 2 3 3 3 3 3 3 3 3 3 3 3 6 6 7 9 9 8 8 8 10 11 12 14 15 20 27 31 34 36 37 35 37 60 89 102 111 112 101 104 111 108
3 3 3 2 2 2 2 2 2 2 1 1 2 1 1 2 1 1 1 1 1 1 1 2 2 2 2 2 2 2 2 3 2 3 3 3 3 3 3 3 3 3 3 3 4 5 7 7 8 10 9 8 9 9 9 10 11 13 17 22 28 33 40 43 37 36 51 76 102 108 101 107 109 104
3 3 3 3 2 2 2 2 1 2 2 1 2 1 1 2 1 1 1 1 1 1 1 2 2 2 2 2 3 3 2 2 2 3 3 3 3 3 3 3 3 3 3 3 3 4 5 6 7 8 10 9 9 9 8 8 8 10 11 14 20 27 37 46 47 41 36 43 66 88 102 109 104 102
3 3 3 2 3 2 2 2 2 2 2 1 2 2 1 1 1 1 1 1 1 1 1 2 2 2 3 2 3 3 2 2 2 3 3 3 3 3 3 3 3 4 3 3 4 4 4 5 6 7 8 9 9 9 9 8 7 8 9 10 13 20 32 44 50 50 44 38 40 53 76 99 107 106
3 3 3 3 3 2 2 2 2 2 2 2 1 2 2 1 1 1 1 1 1 1 1 2 2 3 3 2 3 3 3 2 2 2 3 3 2 2 3 3 2 3 4 3 4 4 4 4 4 6 7 8 10 10 10 10 9 7 7 8 10 13 23 39 49 53 51 47 43 39 45 65 87 102
3 3 3 3 2 2 2 2 2 2 2 2 2 1 2 2 1 1 1 1 1 1 1 2 2 2 2 2 2 3 3 2 2 2 2 3 3 2 2 3 3 3 3 4 3 4 4 4 3 4 6 7 8 10 10 10 10 9 8 6 8 10 16 29 44 53 55 52 50 47 42 42 52 70
4 3 3 3 2 2 2 2 2 2 2 2 2 2 2 2 1 1 1 1 1 1 1 2 2 2 2 2 2 2 3 2 2 2 2 2 3 3 3 2 3 3 3 3 4 3 3 4 4 4 4 5 7 8 9 10 10 11 10 8 7 8 12 21 34 48 56 57 54 53 52 46 42 43
4 3 3 3 3 2 2 2 2 2 2 2 2 2 2 1 2 1 1 1 1 1 2 2 2 2 2 2 2 2 2 3 2 2 2 2 2 3 3 3 2 3 3 3 3 4 3 3 4 4 4 4 5 6 7 9 10 11 11 10 8 7 9 15 26 40 53 58 57 56 57 55 51 46
4 3 3 3 3 3 3 3 2 2 2 2 2 2 2 2 2 1 1 2 1 1 2 2 2 3 3 2 2 2 2 2 2 2 2 2 3 2 3 3 3 3 3 3 3 3 4 4 4 4 4 4 4 5 6 7 9 10 11 10 9 8 8 10 18 32 47 57 59 58 60 61 60 56
5 3 3 3 3 3 3 3 3 2 2 2 2 2 2 2 2 2 1 2 1 1 2 2 2 2 3 3 3 3 3 2 2 2 2 2 2 3 3 3 3 3 3 3 4 3 4 4 4 4 4 4 4 4 4 5 7 8 10 10 10 9 8 8 13 24 40 54 59 59 61 65 67 65
5 3 3 3 3 3 3 3 3 2 2 2 2 2 2 2 2 2 2 2 2 2 2 2 2 2 3 3 3 3 3 3 2 2 2 2 2 3 3 3 3 4 3 3 3 4 4 4 4 4 4 4 4 4 4 4 5 7 8 9 10 10 9 8 10 18 33 48 57 60 62 65 70 72
6 4 3 3 3 3 3 3 3 3 2 2 2 2 2 2 2 2 2 2 2 2 2 2 2 2 2 3 3 3 3 3 3 2 2 2 2 2 3 4 4 4 4 4 3 4 4 4 4 4 4 4 4 4 4 4 4 5 7 7 9 10 10 9 9 14 26 41 52 57 61 66 72 76
7 4 3 3 3 3 3 3 3 3 2 2 2 2 2 2 2 2 2 2 2 2 2 2 2 2 2 2 3 3 3 2 3 2 2 2 3 3 3 4 4 4 4 4 4 4 4 4 4 4 4 4 4 4 5 5 4 4 5 7 8 10 10 10 10 11 19 33 46 53 57 63 72 79
8 6 4 3 3 3 3 3 3 3 3 2 2 2 2 2 2 2 2 2 2 2 2 2 2 2 2 3 2 3 3 3 2 2 3 2 2 3 3 3 4 5 5 4 5 4 4 4 4 4 4 4 4 4 4 5 5 5 5 6 7 9 10 11 10 12 16 25 38 48 54 61 70 80
8 7 5 4 3 3 3 3 3 3 3 3 2 2 2 2 2 2 2 2 2 2 2 2 2 2 2 2 3 3 3 3 3 3 3 3 2 2 3 4 4 4 5 5 4 4 4 4 4 4 4 4 4 4 4 4 5 5 5 6 7 8 10 11 11 12 14 20 31 41 49 58 69 80
8 8 6 4 3 3 3 3 3 3 3 3 3 2 2 2 2 2 2 2 2 2 3 2 2 2 2 2 3 3 3 3 3 3 3 3 3 3 3 4 4 4 4 4 4 4 4 5 5 4 4 5 5 4 4 4 5 5 5 6 6 7 9 11 12 13 14 17 25 34 43 54 67 80
9 9 7 4 3 3 3 3 3 3 3 3 3 3 2 2 2 2 2 2 2 2 3 3 3 3 3 3 3 3 3 3 3 3 3 3 3 3 3 3 4 4 4 4 4 4 4 5 5 5 5 5 5 5 5 4 4 5 5 6 6 7 9 10 11 13 14 16 20 27 35 48 64 79
10 11 9 5 3 3 3 4 3 3 3 3 3 3 3 2 2 2 2 2 2 3 3 3 3 3 3 3 3 3 4 4 4 3 4 3 3 3 3 3 4 4 4 4 4 4 4 4 5 5 5 5 5 5 5 5 5 5 5 6 6 6 8 10 11 13 14 15 19 22 29 42 60 78
10 12 11 7 4 3 4 4 4 3 3 3 3 3 3 3 3 2 2 2 2 3 3 3 3 4 3 3 3 3 4 4 4 4 4 3 3 3 3 4 4 4 4 4 4 4 4 4 5 5 5 5 5 5 5 5 5 5 4 5 6 6 7 9 10 12 14 15 17 20 25 36 55 76
10 12 12 10 7 5 4 4 4 4 3 3 3 3 3 3 3 3 2 3 2 2 3 4 4 4 4 4 3 4 4 4 4 4 4 4 4 4 4 4 4 4 4 4 4 4 4 4 5 5 5 5 5 5 5 5 5 5 5 5 5 6 7 8 9 12 14 15 17 18 21 30 49 73
11 12 13 13 11 8 5 4 4 4 3 3 3 4 3 3 3 3 2 2 3 3 3 4 4 4 4 4 4 4 4 4 4 5 5 4 4 4 4 4 4 4 4 4 4 4 4 5 5 5 5 5 5 5 5 5 5 5 5 5 5 5 6 8 9 11 13 16 18 18 19 27 44 68
12 12 13 14 12 9 5 4 4 4 4 4 3 3 4 3 3 3 3 3 3 3 3 3 4 4 4 5 5 4 4 4 4 5 5 5 4 4 4 4 4 4 4 4 4 4 4 5 5 5 5 5 5 5 5 5 5 5 5 5 5 5 5 7 8 11 13 16 18 19 20 26 41 63
12 12 14 14 12 8 5 5 4 4 4 4 3 3 4 4 3 3 3 3 3 3 3 3 4 4 4 4 5 5 5 4 4 5 5 5 5 5 4 4 4 4 4 5 5 5 5 5 5 6 6 5 5 5 5 5 5 5 5 5 5 5 5 6 8 10 13 15 17 19 21 26 39 59
12 12 14 16 14 9 6 5 4 4 4 4 4 3 3 4 4 3 3 3 3 3 3 3 3 4 4 5 5 5 5 5 5 5 5 5 5 5 5 4 4 4 5 5 5 5 5 6 6 6 6 6 6 6 5 5 5 5 5 6 6 5 5 5 7 10 13 16 17 19 21 27 38 56
12 12 14 17 16 12 7 5 4 4 4 4 4 4 3 4 4 4 3 4 3 3 3 3 4 4 4 5 5 5 5 5 5 5 5 5 5 5 5 5 5 4 5 5 5 5 5 6 6 6 6 6 6 6 6 6 5 6 6 6 5 6 6 5 6 9 12 16 18 20 22 27 37 54
12 12 14 16 17 14 10 6 5 4 4 4 4 4 4 4 4 4 4 3 4 4 3 3 3 4 4 5 5 5 5 5 5 5 5 5 5 5 5 5 5 5 5 5 5 6 6 6 6 6 6 6 6 6 6 6 6 6 6 6 6 6 6 5 6 7 11 15 17 20 23 28 39 54
12 12 13 15 16 14 11 8 6 5 4 4 4 4 4 4 4 4 4 4 4 4 4 3 3 3 4 5 5 5 5 5 5 6 5 5 5 5 5 5 5 5 5 5 5 6 6 6 7 7 7 7 7 7 7 7 6 6 6 6 6 6 6 6 5 6 9 14 17 20 23 29 39 53
13 12 13 15 15 13 11 8 7 6 5 4 4 4 4 4 4 4 4 4 4 4 4 4 4 3 4 4 5 5 5 5 5 5 5 5 5 5 5 5 5 5 5 5 6 6 6 6 7 7 7 7 7 7 7 7 7 7 6 6 7 6 6 7 6 6 8 12 16 21 24 29 37 49
15 13 13 15 15 14 12 9 7 6 5 5 4 4 4 4 4 4 4 4 4 4 4 4 4 4 4 4 4 5 5 5 5 6 5 6 6 6 5 5 5 5 5 5 6 6 6 6 7 7 7 8 7 7 8 8 7 7 7 6 7 7 6 7 7 6 7 10 14 20 24 30 38 49
17 15 14 15 17 17 14 11 8 6 5 5 5 4 4 5 4 4 4 4 4 4 4 4 4 4 4 4 4 4 5 5 6 6 5 6 6 6 6 6 5 5 5 5 5 6 6 6 7 7 7 8 8 8 8 8 8 8 7 7 7 7 7 7 7 7 7 8 12 18 23 29 36 47
18 16 15 16 18 20 18 14 10 7 6 5 5 4 4 4 4 4 4 4 4 4 4 4 4 4 4 4 4 4 5 5 6 6 6 6 6 6 6 6 6 6 6 5 5 6 6 6 7 7 7 7 8 8 8 8 8 8 8 7 7 7 7 7 7 7 7 8 11 16 22 28 35 45
18 17 16 16 19 22 22 18 14 9 6 5 5 5 5 4 4 4 4 4 4 4 4 4 4 4 5 4 4 4 4 5 5 6 6 6 6 6 6 6 6 6 6 6 5 5 6 6 6 7 7 7 8 8 8 8 8 8 8 8 7 7 7 8 7 7 7 8 9 14 21 28 35 44
17 16 15 15 19 23 24 22 17 12 8 6 5 5 5 5 4 4 4 4 4 4 4 4 4 4 5 5 4 4 4 4 5 5 5 6 6 6 6 6 7 7 7 7 6 6 6 6 6 6 7 7 8 8 8 8 8 9 8 8 8 7 7 8 8 8 8 8 9 12 18 26 35 42
16 16 15 15 18 22 25 25 20 15 11 8 6 5 5 5 5 5 4 4 4 4 4 4 5 4 4 5 5 5 4 4 4 5 5 5 6 6 6 6 6 7 7 7 7 6 6 6 6 6 6 7 7 8 8 9 9 9 8 8 8 8 8 8 8 8 8 8 9 11 16 24 34 42
Wind_Speed
57 53 49 47 45 41 39 37 36 37 36 36 36 37 37 38 41 47 53 57 59 62 66 70 73 77 81 85 90 95 102 112 121 128 134 138 143 148 152 157 163 171 176 176 176 177 179 183 188 192 195 197 197 192 186 180 176 173 172 171 169 167 163 160 157 154 151 148 145 143 140 138 135 134
58 54 50 47 45 41 38 36 35 36 37 36 35 35 36 37 39 44 50 55 57 59 63 68 72 75 78 82 85 90 96 104 113 122 129 134 138 143 148 152 158 164 171 175 176 177 178 181 185 190 194 196 197 194 189 183 178 175 174 174 173 170 166 162 159 157 153 149 147 145 142 139 137 135
57 53 49 46 44 42 39 35 34 34 36 36 35 35 35 36 38 41 46 52 55 57 61 66 70 72 75 78 81 85 90 97 105 114 123 129 134 138 142 147 152 158 164 171 175 176 178 180 183 187 191 194 195 194 189 184 180 177 175 176 176 173 169 164 161 159 156 153 150 147 145 142 139 137
56 51 47 45 43 41 39 37 34 33 34 35 36 35 35 35 37 39 43 48 52 55 59 63 66 69 72 75 77 81 85 91 97 106 115 124 130 134 138 142 147 152 157 164 170 175 177 180 182 184 187 190 192 191 187 182 181 180 178 178 178 175 171 165 161 159 157 155 152 149 147 145 142 139
55 51 47 44 42 40 38 37 35 33 32 33 35 35 35 35 37 38 41 45 48 52 57 60 62 65 68 71 75 78 82 86 91 98 107 116 124 130 134 137 141 146 151 156 164 171 175 178 181 183 185 186 187 188 186 181 179 180 180 180 179 176 171 167 163 160 158 156 154 151 149 146 144 142
57 53 49 46 43 40 37 35 35 34 32 32 33 34 35 35 36 37 39 42 45 49 54 58 59 61 64 68 72 76 79 82 86 91 98 107 117 124 130 134 137 141 145 150 156 165 171 175 178 181 183 184 184 184 183 180 177 177 178 180 179 176 172 169 166 163 161 159 157 154 151 148 146 143
59 55 51 47 44 41 38 35 34 33 32 31 31 32 34 35 35 37 38 39 41 45 50 55 58 59 61 65 69 73 76 80 82 86 91 98 107 117 125 130 134 137 140 144 150 157 165 170 174 178 181 183 183 182 181 179 177 175 174 176 177 176 173 171 169 166 163 161 159 158 155 151 148 145
59 55 51 48 45 41 38 36 34 33 32 31 30 31 32 34 35 36 36 38 40 42 46 52 56 57 59 63 67 70 73 77 79 82 86 92 99 107 117 125 130 134 137 140 144 150 157 163 168 173 177 180 182 182 180 179 177 174 172 170 172 174 174 172 170 167 165 163 161 160 158 155 151 148
58 55 51 48 45 41 38 35 34 33 31 30 29 30 31 33 34 35 35 36 39 40 42 48 53 55 57 61 65 67 70 73 76 79 82 87 93 99 108 117 125 131 134 137 139 144 150 156 161 166 172 176 179 180 179 178 177 175 171 167 166 168 171 173 171 169 166 165 163 162 161 158 155 151
58 54 51 48 45 41 37 35 33 32 31 29 28 29 29 31 32 33 34 34 36 38 39 43 49 53 56 60 62 65 69 71 73 77 80 84 89 94 101 109 118 126 131 134 136 139 144 149 154 160 165 171 174 176 176 176 176 174 172 167 163 162 165 169 171 170 167 166 164 163 162 160 158 155
57 54 51 48 44 41 37 34 32 31 29 28 27 27 28 29 31 31 32 32 33 35 36 39 45 51 54 58 60 62 67 71 72 76 79 83 87 91 96 102 109 118 125 131 134 137 139 143 148 153 158 164 168 170 171 171 172 172 171 168 163 160 160 164 168 170 169 167 165 164 163 161 159 157
57 54 51 48 45 41 38 34 31 30 28 26 26 26 27 28 29 29 29 29 30 32 33 36 42 48 52 56 59 60 65 70 73 75 78 81 84 88 92 97 102 109 116 124 131 134 137 139 142 146 151 157 161 164 165 165 166 167 168 167 164 160 158 160 163 166 168 168 167 165 164 162 161 159
56 54 50 47 44 41 38 35 31 29 28 26 25 25 25 25 26 26 26 26 28 29 30 33 39 45 49 52 56 59 63 67 71 74 77 80 83 86 89 93 97 102 108 115 123 130 134 137 138 141 144 149 153 157 159 159 159 160 161 162 161 159 158 158 159 161 164 166 167 167 165 163 162 160
56 54 50 47 44 40 37 35 32 30 28 26 25 24 24 23 23 23 23 23 25 26 27 31 36 42 47 50 54 59 63 66 69 72 76 80 83 85 87 90 93 97 101 106 113 122 130 134 136 138 139 142 146 150 153 154 153 153 154 155 156 157 157 158 158 159 160 162 164 166 166 164 163 161
56 53 50 47 44 40 37 34 32 30 28 25 24 23 22 22 20 20 21 21 23 24 26 30 35 40 45 49 53 59 63 65 67 71 75 79 82 83 85 87 89 93 96 100 105 113 121 129 133 135 136 138 139 142 145 147 148 148 148 148 149 151 154 157 158 158 159 159 160 162 163 164 164 162
56 53 49 46 43 40 37 34 32 30 29 26 24 23 21 20 19 18 19 20 21 23 25 30 36 41 46 49 53 58 63 65 66 69 73 77 80 81 83 85 87 90 93 96 101 106 113 120 126 131 134 135 136 137 138 140 142 143 143 143 143 146 150 155 157 158 158 158 158 158 160 161 162 162
56 52 48 45 42 39 37 35 32 30 29 26 24 22 20 18 17 17 17 18 20 22 25 31 37 43 47 50 54 58 63 65 66 68 71 74 77 79 81 83 85 88 91 93 97 102 106 111 117 123 129 133 134 135 135 136 137 138 138 138 139 141 145 151 155 157 157 158 157 156 157 157 158 159
55 52 48 44 41 39 36 34 32 29 28 26 23 21 19 17 15 15 16 17 19 22 26 31 38 43 47 50 54 58 62 65 66 67 69 71 73 76 79 82 84 86 88 90 94 97 101 104 108 114 121 127 132 134 134 134 133 133 134 134 135 138 142 147 152 155 156 157 156 155 155 155 155 155
55 51 47 43 41 39 37 34 32 29 27 25 23 21 19 16 14 14 15 16 19 22 26 31 36 41 45 49 53 57 61 64 65 65 66 67 69 73 76 79 81 83 85 87 89 92 95 98 102 107 113 120 126 131 133 133 132 131 131 131 132 135 139 143 148 152 155 156 156 154 153 153 152 152
54 50 47 43 41 39 37 34 32 29 27 25 23 20 18 15 13 13 14 15 18 22 26 30 34 39 43 47 50 54 58 61 62 62 63 64 65 68 72 75 78 80 83 85 86 88 90 94 98 102 107 113 120 126 129 131 132 131 131 130 129 132 136 139 143 148 152 154 155 154 152 151 150 150
52 50 47 44 41 39 36 34 31 29 27 25 23 21 18 15 12 12 13 15 17 21 25 29 34 38 42 45 47 50 53 57 59 60 61 61 61 64 68 72 75 79 82 83 84 85 88 91 95 99 103 107 113 119 124 128 130 131 131 129 127 128 132 135 139 143 148 152 153 153 151 150 149 148
51 48 47 44 42 39 37 34 32 29 27 25 23 20 18 15 12 11 12 14 16 20 24 29 34 38 41 44 46 48 51 54 57 59 59 58 58 60 63 67 72 76 79 80 80 82 85 88 92 96 99 103 107 113 118 123 126 129 129 128 126 125 128 132 135 139 144 149 151 152 150 149 148 147
51 47 45 44 41 39 37 34 32 29 27 25 22 20 18 15 12 10 11 13 16 19 24 29 34 38 41 43 45 48 51 54 56 57 57 56 56 57 60 64 68 71 73 74 75 78 81 84 88 92 96 99 103 107 112 117 121 125 127 126 125 124 125 128 132 136 141 145 149 150 149 148 147 145
51 48 45 42 40 38 36 34 31 28 26 24 21 19 17 15 12 10 10 12 15 19 23 28 32 36 39 42 44 47 49 52 54 55 56 56 55 55 58 61 64 66 69 72 74 77 79 82 86 89 92 96 99 103 107 112 117 120 123 124 124 123 123 125 128 132 137 142 146 148 147 146 145 144
50 49 46 43 40 38 36 33 30 27 25 23 21 18 17 15 12 10 10 12 14 17 21 25 30 34 37 39 41 44 46 48 51 53 54 54 54 55 57 60 63 66 69 72 75 77 79 81 84 87 90 93 96 100 104 108 112 116 120 122 123 123 123 123 125 129 134 139 142 145 145 144 143 142
50 49 47 44 41 37 34 33 30 28 25 23 21 18 16 14 13 11 10 11 13 16 19 24 27 31 34 36 38 40 43 46 48 50 52 52 51 52 56 61 65 69 72 73 75 76 77 79 82 84 87 91 94 97 101 104 108 112 116 120 121 122 123 122 123 126 131 136 139 142 142 142 141 140
50 49 47 44 41 36 34 32 31 29 26 24 22 18 16 14 13 11 10 11 12 15 18 21 24 28 31 33 35 38 40 43 45 48 50 51 51 51 54 60 66 70 72 74 75 76 76 78 79 82 85 88 92 95 98 100 104 108 113 117 119 121 122 122 122 124 128 132 136 139 140 139 139 138
52 51 49 45 41 37 35 33 32 31 28 25 23 19 16 14 13 12 10 10 12 14 16 19 22 25 29 31 33 35 37 39 42 45 48 49 49 50 53 58 63 68 71 73 75 76 76 77 78 80 83 86 89 93 95 98 101 105 110 114 117 119 120 121 121 123 126 129 133 136 137 137 136 136
53 52 51 47 42 38 37 36 34 32 29 26 24 20 17 14 12 11 11 10 11 13 15 17 20 23 27 29 31 33 35 38 41 44 46 47 48 48 51 55 60 65 69 71 73 74 74 75 76 78 81 84 87 90 93 96 99 103 107 111 114 116 119 120 121 122 123 126 130 133 134 134 134 135
52 51 50 48 44 40 38 36 34 32 29 26 24 21 17 14 12 11 10 10 11 12 14 16 18 21 25 28 31 33 34 36 39 42 45 46 47 48 50 53 58 63 66 69 70 71 72 73 74 76 78 81 84 87 90 94 97 100 104 107 110 113 117 119 120 120 121 124 127 130 131 132 133 133
51 50 49 49 48 46 42 38 35 32 29 26 24 21 18 15 12 10 10 10 10 11 13 15 17 20 23 27 30 32 33 35 37 39 42 44 46 48 50 52 56 60 63 66 68 68 69 70 72 73 76 78 81 84 88 91 95 98 100 103 106 110 114 117 118 118 119 121 124 127 128 130 131 132
50 49 48 47 47 47 43 38 35 32 29 26 23 21 19 16 12 10 9 10 10 11 12 14 17 19 22 25 28 31 33 35 36 37 40 43 45 47 49 52 54 56 59 62 64 65 67 68 70 72 74 76 79 82 85 88 92 94 97 100 103 106 110 114 116 117 118 119 121 123 125 127 130 130
48 48 47 45 43 43 41 37 34 32 29 26 23 21 19 16 13 10 9 9 10 11 12 14 16 18 21 23 25 28 32 34 35 37 40 42 44 45 47 49 51 53 56 59 61 63 64 66 68 70 72 75 77 79 82 85 88 91 95 97 99 101 105 109 113 116 117 118 119 120 122 124 128 130
47 47 46 45 43 41 39 37 34 31 29 27 24 21 19 17 14 11 9 9 9 11 12 13 15 17 20 22 24 26 29 32 34 36 38 40 42 43 45 47 49 51 53 56 58 60 62 64 66 69 71 73 75 77 80 82 85 88 91 94 96 97 100 104 110 114 116 117 117 118 119 122 126 129
45 46 46 45 44 41 39 37 34 32 29 27 24 21 19 17 15 12 10 9 9 10 12 13 15 16 19 21 23 25 27 30 33 36 38 39 40 41 43 45 48 50 52 54 56 58 60 62 65 67 70 72 74 75 77 79 82 85 88 91 93 95 97 100 106 111 115 116 117 116 118 121 124 127
44 45 45 45 44 42 40 37 34 32 30 27 25 22 19 17 15 13 10 9 9 10 11 13 15 16 18 20 23 25 26 28 31 34 37 39 40 41 42 44 47 49 51 53 55 57 59 61 63 66 68 70 72 73 75 77 79 82 86 89 92 94 95 97 102 108 113 116 117 116 117 119 123 126
43 44 45 44 43 42 40 38 36 33 30 28 26 23 20 17 15 13 11 10 9 9 11 13 15 16 18 20 22 24 26 28 30 32 36 39 41 42 43 44 46 48 51 53 55 56 58 59 61 64 66 68 70 72 73 75 78 80 83 86 89 91 93 95 99 104 110 114 116 116 117 119 122 125
42 43 44 44 42 40 39 38 36 34 32 29 27 24 21 18 15 13 11 10 9 9 11 12 14 16 18 20 22 24 26 28 29 31 33 36 40 42 44 46 47 49 51 53 55 57 58 59 61 62 65 66 68 70 71 74 76 78 80 83 85 88 90 93 96 101 107 113 116 117 117 119 121 124
42 43 44 44 43 40 38 36 35 34 32 30 28 25 23 19 16 14 12 11 9 9 10 12 14 16 18 20 22 24 26 28 29 31 32 34 37 41 44 47 49 50 52 54 56 57 58 60 61 62 63 65 66 68 70 72 74 76 79 81 84 86 88 91 94 97 103 110 115 117 118 119 121 123
42 42 43 44 44 42 39 36 34 32 31 30 28 26 24 21 18 15 12 11 10 10 10 12 14 16 18 20 22 24 25 27 29 31 32 34 35 38 42 46 49 51 53 55 56 57 59 60 61 62 63 64 65 67 69 70 72 75 78 80 83 85 87 90 93 96 100 106 112 116 118 119 120 122
42 42 43 44 45 44 42 39 35 33 31 30 28 26 25 23 20 17 13 11 11 10 10 12 14 16 18 20 22 24 25 27 29 30 32 33 35 37 39 43 47 51 54 55 57 58 59 60 61 62 63 64 65 66 68 70 72 74 77 79 82 84 86 89 92 94 98 103 109 114 118 119 120 121
43 42 42 43 44 45 45 43 39 35 32 30 29 27 25 23 21 19 16 13 11 10 11 12 13 15 18 20 22 24 25 27 29 30 31 33 35 36 38 41 45 49 53 56 57 59 60 60 61 62 63 64 65 66 68 69 71 73 75 78 80 82 85 87 90 93 96 100 106 112 116 119 120 121
43 42 41 42 43 44 45 44 42 38 34 31 29 27 26 24 22 20 18 15 12 11 11 12 13 15 17 19 21 23 25 27 29 30 32 33 34 36 38 40 43 46 50 54 57 58 60 61 62 63 63 64 65 66 67 69 70 72 74 76 78 81 83 86 88 90 93 97 103 109 114 118 119 120
41 41 41 41 42 43 43 44 43 41 37 33 29 27 26 25 24 21 19 17 15 12 11 12 13 14 17 19 21 23 25 27 28 30 32 33 34 36 37 39 42 44 48 51 55 58 60 61 62 63 64 64 65 66 67 68 70 71 73 75 77 79 82 84 86 89 91 95 100 105 112 117 119 121
40 39 39 40 41 42 42 42 42 41 38 36 32 29 26 24 24 22 20 18 16 15 13 12 13 14 16 18 20 22 24 26 28 30 31 33 34 36 37 39 41 43 46 49 53 56 58 60 62 63 64 65 66 66 67 68 69 71 72 74 76 78 80 82 85 87 90 93 97 102 109 115 119 121
Wind_Direction
328 325 322 318 313 309 304 299 293 287 280 272 265 260 253 244 236 235 237 236 233 229 227 225 224 223 222 222 221 221 220 219 219 219 219 219 219 219 219 219 219 219 220 220 220 220 221 222 223 224 226 228 228 228 227 227 226 226 226 227 227 226 226 226 226 227 228 229 229 229 229 229 230 230
329 326 323 319 315 311 306 301 295 289 283 277 270 263 256 249 240 235 235 235 233 230 228 226 224 222 222 221 220 220 220 220 219 219 219 219 219 219 219 219 219 219 220 220 220 220 221 222 223 224 225 227 229 228 227 227 226 226 226 227 227 227 226 225 226 226 227 228 229 230 230 230 230 230
329 326 324 321 317 313 309 304 298 291 286 280 274 267 260 253 245 238 235 234 233 231 229 227 225 222 220 220 220 220 220 220 220 219 219 219 219 219 219 219 220 220 220 220 220 220 221 222 223 224 225 227 229 229 228 227 226 226 227 228 228 228 227 226 225 226 227 227 228 229 230 230 230 230
328 326 325 323 319 315 310 306 301 294 288 282 277 271 264 257 250 243 237 234 232 231 230 228 226 224 221 219 219 219 219 219 219 219 219 219 219 219 219 219 220 220 220 220 221 221 221 222 223 224 226 227 228 229 229 228 226 226 226 228 229 228 228 227 226 226 227 227 228 228 229 230 230 230
330 328 328 326 322 317 311 307 303 297 290 283 279 274 268 261 255 248 242 237 232 231 231 229 226 224 223 221 218 217 218 219 219 219 219 219 219 219 220 220 220 220 220 220 221 221 221 222 223 224 226 227 228 229 230 229 228 226 225 227 228 229 229 228 227 226 227 228 228 228 229 230 230 231
332 331 330 328 324 319 314 309 304 299 293 286 280 275 270 265 258 253 246 240 235 230 230 231 228 224 223 223 220 217 217 218 218 218 218 218 219 219 219 220 220 220 220 220 220 221 222 222 223 224 225 227 228 228 229 229 229 228 226 226 227 229 229 229 228 227 227 227 228 229 229 230 231 231
334 332 330 329 326 322 317 312 307 302 296 290 283 277 272 267 261 256 250 244 238 232 229 231 231 225 222 222 222 219 217 217 217 217 217 218 218 218 219 219 220 220 220 221 220 221 222 223 223 224 225 226 227 228 229 229 229 229 228 226 226 227 228 229 229 228 227 227 228 228 229 230 230 231
333 332 331 330 327 323 318 314 310 305 300 293 287 280 274 269 263 258 252 246 240 234 228 229 231 228 223 221 221 221 219 217 216 216 216 217 217 217 218 219 219 220 220 220 220 221 222 223 223 224 225 226 227 228 228 229 229 229 229 228 227 226 227 228 229 229 228 228 228 228 229 230 230 231
333 332 331 330 327 324 320 315 312 307 302 297 290 284 276 270 265 259 253 247 242 236 228 227 229 229 226 222 220 219 220 218 216 216 216 216 217 217 217 218 218 219 220 220 220 221 221 222 223 224 225 226 227 227 228 228 229 229 229 228 227 226 227 227 229 229 229 229 229 229 229 229 230 231
334 333 332 330 328 325 321 317 313 309 304 299 293 286 279 271 266 260 255 248 243 238 230 225 227 228 227 225 221 217 219 219 216 215 215 215 216 216 216 217 217 218 219 220 220 221 221 222 223 223 224 226 227 228 228 228 228 228 229 228 228 227 227 227 228 229 229 229 229 229 230 230 230 231
335 334 332 331 329 326 323 320 316 311 306 301 295 288 281 273 266 260 255 249 243 239 232 224 224 225 225 225 223 218 217 218 216 215 215 215 214 215 215 216 217 217 218 219 220 220 221 222 222 223 224 225 227 228 228 228 228 228 228 228 228 227 227 227 228 228 229 229 229 229 230 231 231 231
336 334 333 332 331 328 325 322 319 315 310 305 299 292 283 275 268 260 254 248 242 237 231 224 221 223 223 223 223 220 217 217 216 215 215 215 214 214 214 215 216 217 217 218 219 220 221 221 222 223 224 225 226 228 228 228 228 228 227 227 227 227 227 227 228 228 229 229 229 229 230 230 231 232
337 335 334 333 332 330 327 325 323 320 315 310 304 296 287 277 269 261 253 245 240 234 228 223 220 221 221 220 221 222 219 217 217 215 215 215 215 214 214 214 215 216 217 217 218 219 220 221 221 222 223 224 226 227 228 229 228 228 228 227 226 226 226 227 228 228 229 229 229 230 230 230 231 232
339 337 335 334 333 331 330 327 326 323 319 314 308 300 291 281 270 261 252 243 237 231 224 220 218 219 219 217 217 220 220 217 216 215 215 215 215 214 213 213 214 215 216 216 217 218 219 220 221 222 223 224 225 226 228 229 229 228 228 227 226 225 225 226 227 228 228 229 229 230 230 230 230 231
339 337 336 335 334 333 332 330 328 326 322 317 311 304 294 283 271 260 251 241 235 229 219 215 215 215 217 215 214 217 220 218 215 215 215 216 215 214 214 213 213 214 215 215 216 218 219 220 221 221 222 223 224 225 227 228 229 228 228 227 226 224 224 225 226 227 228 228 229 229 230 230 231 231
340 338 337 336 335 334 334 333 331 329 325 321 316 309 298 285 271 259 249 240 233 226 216 210 211 212 213 213 212 214 218 219 216 214 215 216 216 215 214 213 213 213 214 214 215 217 218 219 220 221 221 222 223 224 225 226 228 228 227 226 225 224 223 223 225 226 227 228 228 229 229 230 230 231
340 338 337 337 336 336 336 335 334 331 326 323 318 312 302 287 271 257 247 238 231 224 215 209 209 211 212 212 211 212 216 218 216 215 214 215 216 216 214 214 213 213 213 214 214 216 217 218 219 220 220 221 222 223 224 225 226 227 227 226 225 223 222 222 223 225 226 227 227 228 229 229 230 230
341 339 338 339 339 339 339 337 335 332 327 324 321 315 305 290 272 256 245 236 228 222 215 210 210 212 213 212 211 212 215 217 217 215 214 213 214 215 215 214 214 213 213 214 214 215 216 217 218 219 220 220 221 222 222 223 224 225 226 225 224 223 222 221 222 223 225 226 227 227 228 229 229 230
341 339 338 340 341 341 341 339 336 334 330 326 324 319 309 292 273 256 244 233 226 221 215 212 211 212 213 214 213 213 215 217 218 217 215 213 212 214 215 215 215 214 214 214 215 215 216 216 217 218 219 219 220 221 221 222 222 223 224 224 223 222 221 221 220 221 223 225 226 227 227 228 229 229
342 340 339 342 344 344 343 341 338 336 334 330 327 323 312 296 275 256 242 232 225 219 215 212 211 212 214 215 215 215 216 218 219 219 218 215 212 212 214 215 215 214 215 215 215 215 216 216 216 217 218 219 219 220 221 221 221 221 222 222 222 221 221 220 220 220 221 224 225 226 226 227 228 229
343 342 342 343 345 345 344 343 341 339 336 332 329 325 315 300 278 256 242 232 225 220 216 212 210 210 213 214 215 215 216 218 220 220 219 216 213 211 212 214 215 215 215 215 214 214 215 216 216 217 217 218 219 219 220 220 220 220 221 221 220 220 220 220 219 219 220 222 224 225 225 226 227 228
344 345 345 345 346 346 346 345 344 341 338 333 329 326 318 303 282 259 242 232 225 220 216 213 211 211 212 213 213 213 214 217 219 221 220 217 214 211 210 212 214 216 217 216 215 215 215 215 216 216 217 218 218 219 220 220 220 220 220 220 219 219 219 219 218 218 218 220 222 223 224 225 226 227
346 347 347 346 346 347 347 347 345 343 339 334 330 327 320 306 287 262 243 232 225 221 217 215 213 213 212 213 212 212 213 214 217 219 220 217 214 211 209 210 213 216 217 218 217 217 217 216 216 216 217 217 218 219 219 220 220 220 220 219 218 218 218 218 218 217 217 219 221 222 223 223 224 226
347 348 349 348 347 348 348 348 346 344 341 335 331 329 323 311 292 268 246 234 227 222 220 218 216 216 215 214 214 213 213 214 216 218 219 217 213 209 207 208 210 213 216 217 217 217 217 217 217 217 217 217 217 218 219 219 219 219 219 219 218 217 217 217 217 217 217 217 219 221 221 222 223 224
349 349 350 350 350 349 349 348 348 347 344 339 334 331 327 316 298 275 252 237 230 225 222 221 219 218 218 217 217 216 215 215 216 217 218 218 214 209 206 205 206 209 212 214 216 217 217 217 216 216 216 216 217 218 218 218 218 219 219 218 218 217 217 216 216 216 216 216 218 219 220 220 221 223
351 351 351 351 350 349 349 350 350 350 348 344 338 334 330 320 303 283 260 242 232 228 225 224 221 219 218 219 219 218 217 216 216 217 218 218 216 211 207 206 206 207 209 211 214 215 216 217 217 216 216 216 216 217 218 218 218 218 218 218 217 216 216 216 215 215 215 216 217 218 219 219 220 221
351 352 352 351 350 349 351 352 352 351 351 348 341 336 333 325 309 290 269 249 235 229 227 227 225 222 220 218 218 218 218 217 217 217 217 217 215 212 209 208 208 209 209 210 212 213 215 216 216 216 216 216 216 216 217 217 217 217 218 218 217 216 216 215 215 215 215 215 216 217 217 217 218 219
350 352 352 351 351 351 353 355 354 352 352 350 344 338 334 329 314 296 277 257 241 231 227 227 226 224 221 218 218 218 218 218 217 217 218 218 216 213 211 210 210 211 211 211 211 212 213 214 215 216 216 216 216 216 216 216 217 217 217 217 217 216 215 215 215 214 215 215 215 216 216 216 217 218
350 352 351 349 351 354 356 356 354 352 351 350 346 339 335 331 320 302 283 265 247 235 230 227 226 225 222 218 216 216 217 217 217 217 218 218 216 215 213 212 212 213 214 214 214 213 213 213 214 215 216 216 216 216 216 216 216 217 217 217 217 215 215 215 214 214 214 215 215 215 215 215 215 216
349 352 351 349 350 355 357 356 354 352 350 349 347 341 335 332 325 308 288 270 253 240 232 228 227 226 224 219 216 215 216 216 217 217 218 217 215 214 213 213 213 214 215 216 216 215 214 213 214 214 215 216 216 216 216 216 216 217 217 217 217 216 215 215 215 214 214 214 215 215 215 214 214 215
348 351 353 353 352 352 354 355 354 351 349 348 347 343 337 332 327 314 294 274 257 243 235 229 226 224 224 222 219 215 215 216 217 218 219 219 217 213 212 213 215 216 217 217 217 216 215 214 214 214 215 216 216 216 216 216 216 217 217 217 217 216 215 215 215 214 214 214 215 215 214 213 213 213
348 349 353 356 355 351 350 351 352 351 349 348 347 345 339 333 327 318 300 279 261 246 237 231 228 224 223 224 222 219 216 215 215 216 219 220 219 216 213 212 213 216 218 218 218 217 215 214 214 214 215 215 216 216 216 216 216 216 217 217 217 217 215 215 214 214 214 214 214 214 214 213 212 212
347 348 351 356 355 351 348 349 351 351 350 348 347 346 341 334 328 320 306 285 266 251 239 232 230 226 222 222 222 222 220 217 215 215 217 218 219 217 215 213 213 214 216 217 218 217 216 214 214 214 214 215 215 216 216 216 216 216 216 217 217 217 216 215 214 214 213 213 214 214 213 212 212 211
346 347 350 353 354 352 349 348 350 351 350 349 348 347 344 337 329 321 310 292 272 255 242 234 231 229 224 220 219 221 222 221 217 216 216 218 218 217 215 213 212 213 215 216 217 216 216 215 214 214 214 215 216 216 216 216 216 216 217 217 217 217 216 215 214 213 213 213 213 213 213 211 211 211
346 347 350 352 353 352 351 349 349 350 351 350 349 348 346 341 332 322 312 298 280 261 247 236 230 230 228 223 219 218 220 221 220 217 216 216 216 216 215 213 212 212 213 215 216 216 215 215 214 214 215 215 216 216 216 216 216 216 216 216 217 216 216 214 213 213 213 213 213 213 212 211 210 210
346 347 350 352 353 353 351 350 349 350 350 350 350 349 348 344 335 325 314 300 284 268 253 241 231 228 229 227 223 218 217 219 220 219 217 215 214 213 213 212 212 212 212 213 214 215 215 215 215 215 215 216 216 216 216 216 216 216 216 216 216 216 215 214 213 212 212 212 212 212 212 211 210 210
347 347 348 350 353 354 353 350 349 349 349 350 350 349 349 346 339 329 316 303 287 272 258 247 236 229 226 228 228 223 219 217 218 220 219 217 214 212 211 210 211 211 212 212 213 213 214 215 215 216 216 216 216 216 216 216 216 216 216 216 217 216 215 214 213 212 212 212 212 212 211 210 210 209
348 348 348 349 351 354 355 353 350 348 347 348 349 349 349 348 343 333 320 305 290 275 263 252 243 234 227 225 227 227 225 220 218 218 220 220 217 214 211 209 209 210 211 212 212 212 213 214 215 216 217 217 217 217 217 216 216 216 216 216 216 216 216 215 214 212 211 211 212 212 211 210 210 209
350 349 348 347 349 353 356 355 352 349 347 346 347 347 347 348 346 337 324 309 293 278 265 255 247 240 232 226 224 226 227 226 222 219 218 220 220 218 214 211 210 210 210 211 212 212 213 213 214 215 216 217 217 217 217 217 217 216 216 216 216 215 215 215 214 213 212 211 211 211 211 210 210 209
352 350 348 347 348 350 354 356 355 352 348 345 345 345 345 345 345 341 330 314 297 280 267 257 250 244 238 231 227 224 225 227 227 223 220 219 219 219 218 215 213 211 211 211 212 212 213 213 214 215 216 216 216 217 217 217 217 217 216 216 215 215 215 214 214 213 212 212 211 211 211 211 210 209
353 351 349 348 347 348 351 353 355 354 351 347 345 344 344 343 342 341 336 321 302 285 269 258 251 247 242 237 232 228 225 225 226 227 225 222 219 218 219 219 217 215 214 213 213 213 213 213 214 215 215 216 216 216 217 217 217 217 217 216 215 215 215 214 214 213 212 212 212 211 211 211 210 210
353 353 351 349 348 348 349 350 352 354 353 349 345 343 342 342 340 339 337 328 311 291 274 261 252 247 244 241 237 232 229 226 225 226 226 226 223 220 218 219 219 218 217 216 215 215 214 214 214 215 216 216 217 217 217 216 216 217 217 217 216 215 215 215 214 214 213 212 212 212 211 211 211 210
353 353 351 350 349 348 348 349 349 351 351 350 347 343 340 339 338 337 335 331 319 300 280 266 255 248 244 242 240 237 233 230 227 226 225 226 226 223 220 219 219 219 220 219 219 218 216 215 214 215 215 217 217 217 217 217 217 217 217 217 216 216 215 215 215 214 214 213 212 212 212 211 211 210
352 352 351 350 349 349 348 348 348 348 349 348 347 344 340 337 336 335 334 331 324 310 290 272 259 250 245 242 240 239 237 234 231 228 226 226 226 226 224 221 219 219 220 221 221 221 220 218 216 215 215 216 217 217 218 218 217 217 217 217 216 216 216 215 215 215 214 213 213 212 212 211 211 211
352 352 350 349 349 348 348 347 347 347 347 346 345 343 340 337 334 332 331 330 325 316 301 282 266 255 248 244 241 239 239 237 234 232 229 228 227 226 226 224 222 220 219 220 221 222 222 222 220 218 217 216 217 217 218 218 218 218 218 217 217 216 216 216 215 215 214 214 213 213 212 211 211 211